Time,TemperatureF,DewpointF,PressureIn,WindDirection,WindDirectionDegrees,WindSpeedMPH,WindSpeedGustMPH,Humidity,HourlyPrecipIn,Conditions,Clouds,dailyrainin,SoftwareType,DateUTC
2013-04-27 00:00:00,22.2,20.5,29.80,West,275,0.0,1.0,93,0.00,,---,0.00,VWS V14.01,2013-04-27 08:00:00,
2013-04-27 00:05:00,22.2,20.5,29.80,West,275,0.0,0.0,93,0.00,,---,0.00,VWS V14.01,2013-04-27 08:05:00,
2013-04-27 00:10:00,22.1,20.4,29.80,West,275,0.0,1.0,93,0.00,,---,0.00,VWS V14.01,2013-04-27 08:10:00,
2013-04-27 00:15:00,22.0,20.3,29.80,West,276,0.0,2.0,93,0.00,,---,0.00,VWS V14.01,2013-04-27 08:15:00,
2013-04-27 00:20:00,22.0,20.3,29.80,West,277,0.0,2.0,93,0.00,,---,0.00,VWS V14.01,2013-04-27 08:20:00,
2013-04-27 00:25:00,21.9,19.9,29.81,West,277,0.0,2.0,92,0.00,,---,0.00,VWS V14.01,2013-04-27 08:25:00,
2013-04-27 00:30:00,21.8,20.1,29.81,West,277,0.0,2.0,93,0.00,,---,0.00,VWS V14.01,2013-04-27 08:30:00,
2013-04-27 00:35:00,21.8,20.1,29.81,West,278,0.0,2.0,93,0.00,,---,0.00,VWS V14.01,2013-04-27 08:35:00,
2013-04-27 00:40:00,21.7,20.0,29.81,West,278,0.0,2.0,93,0.00,,---,0.00,VWS V14.01,2013-04-27 08:40:00,
2013-04-27 00:45:00,21.6,19.9,29.81,WNW,284,0.0,3.0,93,0.00,,---,0.00,VWS V14.01,2013-04-27 08:45:00,
2013-04-27 00:50:00,21.7,20.0,29.82,NW,323,0.0,3.0,93,0.00,,---,0.00,VWS V14.01,2013-04-27 08:50:00,
2013-04-27 00:55:00,21.7,20.0,29.82,NW,323,1.0,3.0,93,0.00,,---,0.00,VWS V14.01,2013-04-27 08:55:00,
2013-04-27 01:00:00,21.6,19.9,29.82,NNW,329,0.0,3.0,93,0.00,,---,0.00,VWS V14.01,2013-04-27 09:00:00,
2013-04-27 01:05:00,21.6,19.9,29.82,NNW,332,1.0,2.0,93,0.00,,---,0.00,VWS V14.01,2013-04-27 09:05:00,
2013-04-27 01:10:00,21.6,19.9,29.82,North,351,1.0,4.0,93,0.00,,---,0.00,VWS V14.01,2013-04-27 09:10:00,
2013-04-27 01:15:00,21.6,19.9,29.82,North,360,0.0,4.0,93,0.00,,---,0.00,VWS V14.01,2013-04-27 09:15:00,
2013-04-27 01:20:00,21.6,19.9,29.83,North,5,0.0,4.0,93,0.00,,---,0.00,VWS V14.01,2013-04-27 09:20:00,
2013-04-27 01:25:00,21.6,19.9,29.83,North,360,2.0,4.0,93,0.00,,---,0.00,VWS V14.01,2013-04-27 09:25:00,
2013-04-27 01:30:00,21.7,20.0,29.83,NNW,334,0.0,4.0,93,0.00,,---,0.00,VWS V14.01,2013-04-27 09:30:00,
2013-04-27 01:35:00,21.7,20.0,29.83,North,360,2.0,2.0,93,0.00,,---,0.00,VWS V14.01,2013-04-27 09:35:00,
2013-04-27 01:40:00,21.7,20.0,29.83,North,5,1.0,3.0,93,0.00,,---,0.00,VWS V14.01,2013-04-27 09:40:00,
2013-04-27 01:45:00,21.7,20.0,29.83,North,5,2.0,4.0,93,0.00,,---,0.00,VWS V14.01,2013-04-27 09:45:00,
2013-04-27 01:50:00,21.7,20.0,29.83,North,355,3.0,4.0,93,0.00,,---,0.00,VWS V14.01,2013-04-27 09:50:00,
2013-04-27 01:55:00,21.6,19.9,29.84,North,360,0.0,4.0,93,0.00,,---,0.00,VWS V14.01,2013-04-27 09:55:00,
2013-04-27 02:00:00,21.6,19.9,29.84,North,360,1.0,4.0,93,0.00,,---,0.00,VWS V14.01,2013-04-27 10:00:00,
2013-04-27 02:05:00,21.5,19.8,29.84,North,5,1.0,3.0,93,0.00,,---,0.00,VWS V14.01,2013-04-27 10:05:00,
2013-04-27 02:10:00,21.5,19.8,29.84,North,5,1.0,4.0,93,0.00,,---,0.00,VWS V14.01,2013-04-27 10:10:00,
2013-04-27 02:15:00,21.4,19.7,29.84,North,10,1.0,4.0,93,0.00,,---,0.00,VWS V14.01,2013-04-27 10:15:00,
2013-04-27 02:20:00,21.4,19.7,29.84,North,10,1.0,4.0,93,0.00,,---,0.00,VWS V14.01,2013-04-27 10:20:00,
2013-04-27 02:25:00,21.4,19.7,29.85,NE,36,1.0,5.0,93,0.00,,---,0.00,VWS V14.01,2013-04-27 10:25:00,
2013-04-27 02:30:00,21.3,19.6,29.85,NNE,26,1.0,5.0,93,0.00,,---,0.00,VWS V14.01,2013-04-27 10:30:00,
2013-04-27 02:35:00,21.2,19.5,29.85,NE,34,2.0,5.0,93,0.00,,---,0.00,VWS V14.01,2013-04-27 10:35:00,
2013-04-27 02:40:00,21.2,19.2,29.85,NE,34,3.0,5.0,92,0.00,,---,0.00,VWS V14.01,2013-04-27 10:40:00,
2013-04-27 02:45:00,21.1,19.1,29.85,NE,47,1.0,5.0,92,0.00,,---,0.00,VWS V14.01,2013-04-27 10:45:00,
2013-04-27 02:50:00,21.0,19.0,29.86,NE,51,3.0,5.0,92,0.00,,---,0.00,VWS V14.01,2013-04-27 10:50:00,
2013-04-27 02:55:00,21.0,19.0,29.86,NE,48,2.0,5.0,92,0.00,,---,0.00,VWS V14.01,2013-04-27 10:55:00,
2013-04-27 03:00:00,21.0,18.8,29.86,NE,38,6.0,6.0,91,0.00,,---,0.00,VWS V14.01,2013-04-27 11:00:00,
2013-04-27 03:05:00,21.1,18.6,29.86,NE,44,5.0,5.0,90,0.00,,---,0.00,VWS V14.01,2013-04-27 11:05:00,
2013-04-27 03:10:00,21.1,18.4,29.86,NE,36,2.0,5.0,89,0.00,,---,0.00,VWS V14.01,2013-04-27 11:10:00,
2013-04-27 03:15:00,21.1,18.4,29.86,NE,34,5.0,10.0,89,0.00,,---,0.00,VWS V14.01,2013-04-27 11:15:00,
2013-04-27 03:20:00,21.2,18.2,29.86,NNE,28,3.0,10.0,88,0.00,,---,0.00,VWS V14.01,2013-04-27 11:20:00,
2013-04-27 03:25:00,21.2,18.2,29.86,NE,40,3.0,10.0,88,0.00,,---,0.00,VWS V14.01,2013-04-27 11:25:00,
2013-04-27 03:30:00,21.1,18.1,29.87,NE,40,3.0,10.0,88,0.00,,---,0.00,VWS V14.01,2013-04-27 11:30:00,
2013-04-27 03:35:00,21.1,17.8,29.87,NE,37,4.0,7.0,87,0.00,,---,0.00,VWS V14.01,2013-04-27 11:35:00,
2013-04-27 03:40:00,21.1,17.6,29.87,NE,51,2.0,7.0,86,0.00,,---,0.00,VWS V14.01,2013-04-27 11:40:00,
2013-04-27 03:45:00,21.2,17.7,29.87,NE,41,5.0,7.0,86,0.00,,---,0.00,VWS V14.01,2013-04-27 11:45:00,
2013-04-27 03:50:00,21.1,17.6,29.87,NE,37,6.0,7.0,86,0.00,,---,0.00,VWS V14.01,2013-04-27 11:50:00,
2013-04-27 03:55:00,21.1,17.0,29.87,NE,36,2.0,7.0,84,0.00,,---,0.00,VWS V14.01,2013-04-27 11:55:00,
2013-04-27 04:00:00,21.1,16.8,29.88,NE,42,2.0,7.0,83,0.00,,---,0.00,VWS V14.01,2013-04-27 12:00:00,
2013-04-27 04:05:00,20.8,16.7,29.88,NE,35,2.0,4.0,84,0.00,,---,0.00,VWS V14.01,2013-04-27 12:05:00,
2013-04-27 04:10:00,20.5,16.2,29.88,NE,41,2.0,4.0,83,0.00,,---,0.00,VWS V14.01,2013-04-27 12:10:00,
2013-04-27 04:15:00,20.4,16.1,29.88,NE,48,3.0,5.0,83,0.00,,---,0.00,VWS V14.01,2013-04-27 12:15:00,
2013-04-27 04:20:00,20.5,15.9,29.89,NE,40,2.0,7.0,82,0.00,,---,0.00,VWS V14.01,2013-04-27 12:20:00,
2013-04-27 04:25:00,20.5,15.6,29.89,NNE,30,2.0,8.0,81,0.00,,---,0.00,VWS V14.01,2013-04-27 12:25:00,
2013-04-27 04:30:00,20.5,15.6,29.89,ENE,70,4.0,8.0,81,0.00,,---,0.00,VWS V14.01,2013-04-27 12:30:00,
2013-04-27 04:31:00,20.5,15.6,29.89,NE,53,2.0,8.0,81,0.00,,---,0.00,VWS V14.01,2013-04-27 12:31:00,
2013-04-27 04:36:00,20.5,15.3,29.89,ENE,59,4.0,6.0,80,0.00,,---,0.00,VWS V14.01,2013-04-27 12:36:00,
2013-04-27 04:41:00,20.7,14.9,29.90,NE,40,2.0,11.0,78,0.00,,---,0.00,VWS V14.01,2013-04-27 12:41:00,
2013-04-27 04:46:00,20.7,14.9,29.90,NE,50,2.0,11.0,78,0.00,,---,0.00,VWS V14.01,2013-04-27 12:46:00,
2013-04-27 04:51:00,20.7,14.9,29.90,NE,54,5.0,11.0,78,0.00,,---,0.00,VWS V14.01,2013-04-27 12:51:00,
2013-04-27 04:56:00,20.8,15.3,29.90,East,83,7.0,11.0,79,0.00,,---,0.00,VWS V14.01,2013-04-27 12:56:00,
2013-04-27 05:00:00,20.9,15.1,29.91,ENE,59,3.0,11.0,78,0.00,,---,0.00,VWS V14.01,2013-04-27 13:00:00,
2013-04-27 05:01:00,20.9,15.1,29.91,ENE,59,3.0,11.0,78,0.00,,---,0.00,VWS V14.01,2013-04-27 13:01:00,
2013-04-27 05:06:00,21.1,15.0,29.91,NE,34,5.0,11.0,77,0.00,,---,0.00,VWS V14.01,2013-04-27 13:06:00,
2013-04-27 05:12:00,21.2,14.8,29.91,NNE,21,4.0,11.0,76,0.00,,---,0.00,VWS V14.01,2013-04-27 13:12:00,
2013-04-27 05:17:00,21.2,14.8,29.91,NE,46,0.0,11.0,76,0.00,,---,0.00,VWS V14.01,2013-04-27 13:17:00,
2013-04-27 05:23:00,21.1,14.1,29.92,ENE,63,3.0,11.0,74,0.00,,---,0.00,VWS V14.01,2013-04-27 13:23:00,
2013-04-27 05:28:00,21.2,13.9,29.92,ENE,69,2.0,11.0,73,0.00,,---,0.00,VWS V14.01,2013-04-27 13:28:00,
2013-04-27 05:30:00,21.2,13.6,29.92,ENE,58,4.0,11.0,72,0.00,,---,0.00,VWS V14.01,2013-04-27 13:30:00,
2013-04-27 05:33:00,21.1,13.5,29.92,NE,56,4.0,7.0,72,0.00,,---,0.00,VWS V14.01,2013-04-27 13:33:00,
2013-04-27 05:38:00,21.1,13.5,29.92,ENE,64,0.0,7.0,72,0.00,,---,0.00,VWS V14.01,2013-04-27 13:38:00,
2013-04-27 05:43:00,21.0,13.4,29.93,NE,54,3.0,8.0,72,0.00,,---,0.00,VWS V14.01,2013-04-27 13:43:00,
2013-04-27 05:48:00,21.1,13.2,29.93,NNE,29,1.0,8.0,71,0.00,,---,0.00,VWS V14.01,2013-04-27 13:48:00,
2013-04-27 05:56:00,21.1,13.2,29.93,ENE,57,2.0,8.0,71,0.00,,---,0.00,VWS V14.01,2013-04-27 13:56:00,
2013-04-27 06:00:00,21.2,13.3,29.93,ENE,65,1.0,8.0,71,0.00,,---,0.00,VWS V14.01,2013-04-27 14:00:00,
2013-04-27 06:01:00,21.2,13.3,29.93,ENE,65,2.0,8.0,71,0.00,,---,0.00,VWS V14.01,2013-04-27 14:01:00,
2013-04-27 06:07:00,21.2,13.3,29.94,NNE,24,0.0,7.0,71,0.00,,---,0.00,VWS V14.01,2013-04-27 14:07:00,
2013-04-27 06:12:00,21.2,13.3,29.94,ENE,65,2.0,7.0,71,0.00,,---,0.00,VWS V14.01,2013-04-27 14:12:00,
2013-04-27 06:17:00,21.2,13.3,29.94,ENE,67,2.0,8.0,71,0.00,,---,0.00,VWS V14.01,2013-04-27 14:17:00,
2013-04-27 06:22:00,21.1,12.9,29.95,NE,53,5.0,8.0,70,0.00,,---,0.00,VWS V14.01,2013-04-27 14:22:00,
2013-04-27 06:27:00,20.9,13.0,29.95,NNE,21,1.0,8.0,71,0.00,,---,0.00,VWS V14.01,2013-04-27 14:27:00,
2013-04-27 06:30:00,20.9,13.0,29.95,NNE,22,1.0,8.0,71,0.00,,---,0.00,VWS V14.01,2013-04-27 14:30:00,
2013-04-27 06:32:00,20.9,13.0,29.95,ENE,68,7.0,7.0,71,0.00,,---,0.00,VWS V14.01,2013-04-27 14:32:00,
2013-04-27 06:37:00,20.9,13.0,29.95,NE,44,1.0,8.0,71,0.00,,---,0.00,VWS V14.01,2013-04-27 14:37:00,
2013-04-27 06:42:00,20.9,12.7,29.96,NNE,26,3.0,8.0,70,0.00,,---,0.00,VWS V14.01,2013-04-27 14:42:00,
2013-04-27 06:47:00,20.9,12.7,29.96,ENE,66,3.0,8.0,70,0.00,,---,0.00,VWS V14.01,2013-04-27 14:47:00,
2013-04-27 06:52:00,21.1,12.9,29.96,NE,41,7.0,8.0,70,0.00,,---,0.00,VWS V14.01,2013-04-27 14:52:00,
2013-04-27 06:56:00,21.1,12.5,29.96,ENE,59,3.0,8.0,69,0.00,,---,0.00,VWS V14.01,2013-04-27 14:56:00,
2013-04-27 07:00:00,21.0,12.8,29.96,North,9,5.0,8.0,70,0.00,,---,0.00,VWS V14.01,2013-04-27 15:00:00,
2013-04-27 07:01:00,21.0,12.8,29.96,NNW,341,2.0,5.0,70,0.00,,---,0.00,VWS V14.01,2013-04-27 15:01:00,
2013-04-27 07:06:00,20.9,12.7,29.97,NNE,30,4.0,6.0,70,0.00,,---,0.00,VWS V14.01,2013-04-27 15:06:00,
2013-04-27 07:11:00,20.8,12.2,29.97,North,5,2.0,8.0,69,0.00,,---,0.00,VWS V14.01,2013-04-27 15:11:00,
2013-04-27 07:16:00,20.9,12.7,29.97,NE,55,1.0,10.0,70,0.00,,---,0.00,VWS V14.01,2013-04-27 15:16:00,
2013-04-27 07:21:00,21.2,12.6,29.97,NE,34,1.0,10.0,69,0.00,,---,0.00,VWS V14.01,2013-04-27 15:21:00,
2013-04-27 07:26:00,21.5,12.6,29.98,NE,46,7.0,10.0,68,0.00,,---,0.00,VWS V14.01,2013-04-27 15:26:00,
2013-04-27 07:30:00,21.6,12.7,29.98,ENE,61,2.0,11.0,68,0.00,,---,0.00,VWS V14.01,2013-04-27 15:30:00,
2013-04-27 07:31:00,21.6,12.4,29.98,ENE,61,2.0,2.0,67,0.00,,---,0.00,VWS V14.01,2013-04-27 15:31:00,
2013-04-27 07:36:00,21.6,12.7,29.98,ENE,61,3.0,12.0,68,0.00,,---,0.00,VWS V14.01,2013-04-27 15:36:00,
2013-04-27 07:41:00,21.6,12.7,29.98,ENE,63,1.0,12.0,68,0.00,,---,0.00,VWS V14.01,2013-04-27 15:41:00,
2013-04-27 07:46:00,21.7,12.4,29.99,NE,35,2.0,12.0,67,0.00,,---,0.00,VWS V14.01,2013-04-27 15:46:00,
2013-04-27 07:51:00,21.8,12.5,29.99,North,355,2.0,12.0,67,0.00,,---,0.00,VWS V14.01,2013-04-27 15:51:00,
2013-04-27 07:56:00,21.9,12.3,29.99,ENE,57,3.0,12.0,66,0.00,,---,0.00,VWS V14.01,2013-04-27 15:56:00,
2013-04-27 08:01:00,21.9,12.3,30.00,NNE,24,8.0,9.0,66,0.00,,---,0.00,VWS V14.01,2013-04-27 16:01:00,
2013-04-27 08:06:00,22.1,12.1,30.00,NE,53,5.0,9.0,65,0.00,,---,0.00,VWS V14.01,2013-04-27 16:06:00,
2013-04-27 08:11:00,22.5,12.2,30.00,East,96,1.0,9.0,64,0.00,,---,0.00,VWS V14.01,2013-04-27 16:11:00,
2013-04-27 08:16:00,22.5,11.5,30.00,ESE,105,0.0,12.0,62,0.00,,---,0.00,VWS V14.01,2013-04-27 16:16:00,
2013-04-27 08:21:00,22.6,11.6,30.00,NE,39,3.0,12.0,62,0.00,,---,0.00,VWS V14.01,2013-04-27 16:21:00,
2013-04-27 08:26:00,22.6,11.6,30.01,North,10,4.0,12.0,62,0.00,,---,0.00,VWS V14.01,2013-04-27 16:26:00,
2013-04-27 08:30:00,22.9,11.5,30.01,NE,48,3.0,12.0,61,0.00,,---,0.00,VWS V14.01,2013-04-27 16:30:00,
2013-04-27 08:31:00,22.9,11.5,30.01,NE,48,3.0,12.0,61,0.00,,---,0.00,VWS V14.01,2013-04-27 16:31:00,
2013-04-27 08:36:00,23.0,11.2,30.01,ENE,69,10.0,10.0,60,0.00,,---,0.00,VWS V14.01,2013-04-27 16:36:00,
2013-04-27 08:41:00,22.8,10.6,30.02,NE,54,8.0,15.0,59,0.00,,---,0.00,VWS V14.01,2013-04-27 16:41:00,
2013-04-27 08:46:00,22.6,10.4,30.02,NNE,30,5.0,15.0,59,0.00,,---,0.00,VWS V14.01,2013-04-27 16:46:00,
2013-04-27 08:51:00,22.4,10.6,30.02,ENE,57,5.0,15.0,60,0.00,,---,0.00,VWS V14.01,2013-04-27 16:51:00,
2013-04-27 08:56:00,22.2,10.8,30.03,North,5,2.0,15.0,61,0.00,,---,0.00,VWS V14.01,2013-04-27 16:56:00,
2013-04-27 09:00:00,22.4,11.0,30.03,NE,46,2.0,15.0,61,0.00,,---,0.00,VWS V14.01,2013-04-27 17:00:00,
2013-04-27 09:01:00,22.4,11.0,30.03,NE,46,2.0,15.0,61,0.00,,---,0.00,VWS V14.01,2013-04-27 17:01:00,
2013-04-27 09:06:00,22.5,10.7,30.03,NE,55,3.0,9.0,60,0.00,,---,0.00,VWS V14.01,2013-04-27 17:06:00,
2013-04-27 09:11:00,22.7,10.5,30.04,East,81,2.0,9.0,59,0.00,,---,0.00,VWS V14.01,2013-04-27 17:11:00,
2013-04-27 09:16:00,22.7,10.2,30.04,NNE,17,3.0,11.0,58,0.00,,---,0.00,VWS V14.01,2013-04-27 17:16:00,
2013-04-27 09:21:00,22.9,10.0,30.04,ENE,58,3.0,11.0,57,0.00,,---,0.00,VWS V14.01,2013-04-27 17:21:00,
2013-04-27 09:26:00,23.3,9.9,30.04,ESE,113,1.0,11.0,56,0.00,,---,0.00,VWS V14.01,2013-04-27 17:26:00,
2013-04-27 09:30:00,23.5,10.5,30.05,NNE,19,3.0,11.0,57,0.00,,---,0.00,VWS V14.01,2013-04-27 17:30:00,
2013-04-27 09:31:00,23.5,10.5,30.05,NNE,18,2.0,11.0,57,0.00,,---,0.00,VWS V14.01,2013-04-27 17:31:00,
2013-04-27 09:36:00,23.9,10.9,30.05,North,5,1.0,3.0,57,0.00,,---,0.00,VWS V14.01,2013-04-27 17:36:00,
2013-04-27 09:41:00,23.7,9.5,30.05,NE,44,10.0,14.0,54,0.00,,---,0.00,VWS V14.01,2013-04-27 17:41:00,
2013-04-27 09:46:00,23.4,9.6,30.05,North,5,2.0,14.0,55,0.00,,---,0.00,VWS V14.01,2013-04-27 17:46:00,
2013-04-27 09:51:00,23.2,8.2,30.06,East,87,4.0,14.0,52,0.00,,---,0.00,VWS V14.01,2013-04-27 17:51:00,
2013-04-27 09:56:00,23.3,8.3,30.06,ENE,78,4.0,14.0,52,0.00,,---,0.00,VWS V14.01,2013-04-27 17:56:00,
2013-04-27 10:00:00,23.1,7.2,30.06,East,87,6.0,15.0,50,0.00,,---,0.00,VWS V14.01,2013-04-27 18:00:00,
2013-04-27 10:01:00,23.1,7.2,30.06,East,84,4.0,15.0,50,0.00,,---,0.00,VWS V14.01,2013-04-27 18:01:00,
2013-04-27 10:06:00,22.9,7.1,30.06,ENE,72,4.0,19.0,50,0.00,,---,0.00,VWS V14.01,2013-04-27 18:06:00,
2013-04-27 10:11:00,23.2,7.8,30.07,East,83,3.0,19.0,51,0.00,,---,0.00,VWS V14.01,2013-04-27 18:11:00,
2013-04-27 10:16:00,23.7,8.2,30.07,NNE,21,3.0,19.0,51,0.00,,---,0.00,VWS V14.01,2013-04-27 18:16:00,
2013-04-27 10:21:00,23.7,7.8,30.07,NNE,20,6.0,19.0,50,0.00,,---,0.00,VWS V14.01,2013-04-27 18:21:00,
2013-04-27 10:26:00,23.6,7.7,30.08,East,84,3.0,19.0,50,0.00,,---,0.00,VWS V14.01,2013-04-27 18:26:00,
2013-04-27 10:30:00,23.9,7.1,30.08,NE,47,7.0,19.0,48,0.00,,---,0.00,VWS V14.01,2013-04-27 18:30:00,
2013-04-27 10:31:00,24.0,7.2,30.08,ENE,66,8.0,19.0,48,0.00,,---,0.00,VWS V14.01,2013-04-27 18:31:00,
2013-04-27 10:36:00,23.5,6.7,30.08,NNE,33,4.0,16.0,48,0.00,,---,0.00,VWS V14.01,2013-04-27 18:36:00,
2013-04-27 10:41:00,23.5,7.2,30.08,ENE,72,6.0,16.0,49,0.00,,---,0.00,VWS V14.01,2013-04-27 18:41:00,
2013-04-27 10:46:00,23.9,8.0,30.08,ENE,62,2.0,16.0,50,0.00,,---,0.00,VWS V14.01,2013-04-27 18:46:00,
2013-04-27 10:51:00,24.5,7.6,30.09,East,98,2.0,16.0,48,0.00,,---,0.00,VWS V14.01,2013-04-27 18:51:00,
2013-04-27 10:56:00,24.4,6.6,30.09,ESE,102,2.0,16.0,46,0.00,,---,0.00,VWS V14.01,2013-04-27 18:56:00,
2013-04-27 11:00:00,24.0,6.2,30.09,North,5,3.0,16.0,46,0.00,,---,0.00,VWS V14.01,2013-04-27 19:00:00,
2013-04-27 11:01:00,24.1,6.3,30.09,ESE,103,4.0,16.0,46,0.00,,---,0.00,VWS V14.01,2013-04-27 19:01:00,
2013-04-27 11:06:00,24.4,7.1,30.09,NE,44,6.0,15.0,47,0.00,,---,0.00,VWS V14.01,2013-04-27 19:06:00,
2013-04-27 11:11:00,24.5,6.7,30.10,ESE,113,4.0,15.0,46,0.00,,---,0.00,VWS V14.01,2013-04-27 19:11:00,
2013-04-27 11:16:00,24.9,7.1,30.10,SSE,158,4.0,15.0,46,0.00,,---,0.00,VWS V14.01,2013-04-27 19:16:00,
2013-04-27 11:21:00,24.9,7.1,30.10,North,350,1.0,15.0,46,0.00,,---,0.00,VWS V14.01,2013-04-27 19:21:00,
2013-04-27 11:26:00,24.7,7.3,30.10,ENE,74,1.0,15.0,47,0.00,,---,0.00,VWS V14.01,2013-04-27 19:26:00,
2013-04-27 11:30:00,24.8,7.4,30.10,ESE,107,4.0,15.0,47,0.00,,---,0.00,VWS V14.01,2013-04-27 19:30:00,
2013-04-27 11:31:00,24.8,7.4,30.10,East,82,4.0,15.0,47,0.00,,---,0.00,VWS V14.01,2013-04-27 19:31:00,
2013-04-27 11:36:00,24.6,6.3,30.11,SE,126,4.0,9.0,45,0.00,,---,0.00,VWS V14.01,2013-04-27 19:36:00,
2013-04-27 11:41:00,24.4,6.6,30.11,ENE,59,10.0,10.0,46,0.00,,---,0.00,VWS V14.01,2013-04-27 19:41:00,
2013-04-27 11:46:00,23.9,5.2,30.12,NE,42,0.0,11.0,44,0.00,,---,0.00,VWS V14.01,2013-04-27 19:46:00,
2013-04-27 11:51:00,24.2,5.4,30.12,East,94,2.0,11.0,44,0.00,,---,0.00,VWS V14.01,2013-04-27 19:51:00,
2013-04-27 11:56:00,24.1,5.8,30.12,ENE,78,7.0,11.0,45,0.00,,---,0.00,VWS V14.01,2013-04-27 19:56:00,
2013-04-27 12:00:00,23.8,5.6,30.12,ESE,115,0.0,11.0,45,0.00,,---,0.00,VWS V14.01,2013-04-27 20:00:00,
2013-04-27 12:01:00,23.8,5.1,30.12,ESE,115,0.0,11.0,44,0.00,,---,0.00,VWS V14.01,2013-04-27 20:01:00,
2013-04-27 12:06:00,24.3,5.5,30.12,ENE,70,10.0,10.0,44,0.00,,---,0.00,VWS V14.01,2013-04-27 20:06:00,
2013-04-27 12:11:00,23.4,5.2,30.12,East,80,5.0,12.0,45,0.00,,---,0.00,VWS V14.01,2013-04-27 20:11:00,
2013-04-27 12:16:00,24.0,5.3,30.13,ENE,77,5.0,12.0,44,0.00,,---,0.00,VWS V14.01,2013-04-27 20:16:00,
2013-04-27 12:21:00,24.5,6.7,30.12,North,5,1.0,12.0,46,0.00,,---,0.00,VWS V14.01,2013-04-27 20:21:00,
2013-04-27 12:26:00,24.6,4.8,30.12,ESE,113,5.0,12.0,42,0.00,,---,0.00,VWS V14.01,2013-04-27 20:26:00,
2013-04-27 12:30:00,23.8,5.1,30.13,ENE,71,2.0,14.0,44,0.00,,---,0.00,VWS V14.01,2013-04-27 20:30:00,
2013-04-27 12:31:00,23.8,5.1,30.13,NE,46,0.0,14.0,44,0.00,,---,0.00,VWS V14.01,2013-04-27 20:31:00,
2013-04-27 12:36:00,23.7,5.0,30.13,East,81,3.0,11.0,44,0.00,,---,0.00,VWS V14.01,2013-04-27 20:36:00,
2013-04-27 12:41:00,23.9,5.2,30.13,East,88,2.0,11.0,44,0.00,,---,0.00,VWS V14.01,2013-04-27 20:41:00,
2013-04-27 12:46:00,24.2,4.9,30.13,NNE,24,9.0,11.0,43,0.00,,---,0.00,VWS V14.01,2013-04-27 20:46:00,
2013-04-27 12:51:00,23.9,4.7,30.14,ENE,65,7.0,11.0,43,0.00,,---,0.00,VWS V14.01,2013-04-27 20:51:00,
2013-04-27 12:56:00,23.8,5.1,30.14,NE,36,8.0,11.0,44,0.00,,---,0.00,VWS V14.01,2013-04-27 20:56:00,
2013-04-27 13:00:00,24.1,5.4,30.14,ENE,75,7.0,11.0,44,0.00,,---,0.00,VWS V14.01,2013-04-27 21:00:00,
2013-04-27 13:01:00,24.0,5.3,30.14,NNE,19,1.0,11.0,44,0.00,,---,0.00,VWS V14.01,2013-04-27 21:01:00,
2013-04-27 13:06:00,23.8,4.6,30.14,NNE,17,7.0,11.0,43,0.00,,---,0.00,VWS V14.01,2013-04-27 21:06:00,
2013-04-27 13:11:00,23.5,3.8,30.14,ENE,72,1.0,13.0,42,0.00,,---,0.00,VWS V14.01,2013-04-27 21:11:00,
2013-04-27 13:16:00,23.6,4.9,30.14,NE,48,6.0,13.0,44,0.00,,---,0.00,VWS V14.01,2013-04-27 21:16:00,
2013-04-27 13:21:00,23.4,3.7,30.14,NE,40,3.0,13.0,42,0.00,,---,0.00,VWS V14.01,2013-04-27 21:21:00,
2013-04-27 13:26:00,23.4,4.7,30.15,East,98,5.0,13.0,44,0.00,,---,0.00,VWS V14.01,2013-04-27 21:26:00,
2013-04-27 13:30:00,24.1,4.8,30.15,North,5,3.0,13.0,43,0.00,,---,0.00,VWS V14.01,2013-04-27 21:30:00,
2013-04-27 13:31:00,24.2,4.9,30.14,NE,52,11.0,13.0,43,0.00,,---,0.00,VWS V14.01,2013-04-27 21:31:00,
2013-04-27 13:36:00,24.1,4.3,30.15,ENE,57,4.0,11.0,42,0.00,,---,0.00,VWS V14.01,2013-04-27 21:36:00,
2013-04-27 13:41:00,24.2,4.4,30.15,NNE,13,0.0,11.0,42,0.00,,---,0.00,VWS V14.01,2013-04-27 21:41:00,
2013-04-27 13:46:00,24.4,4.6,30.15,ENE,77,3.0,11.0,42,0.00,,---,0.00,VWS V14.01,2013-04-27 21:46:00,
2013-04-27 13:51:00,24.8,5.5,30.15,North,360,3.0,11.0,43,0.00,,---,0.00,VWS V14.01,2013-04-27 21:51:00,
2013-04-27 13:56:00,24.9,4.0,30.15,ENE,73,2.0,11.0,40,0.00,,---,0.00,VWS V14.01,2013-04-27 21:56:00,
2013-04-27 14:00:00,24.5,4.7,30.15,East,90,4.0,11.0,42,0.00,,---,0.00,VWS V14.01,2013-04-27 22:00:00,
2013-04-27 14:01:00,24.7,3.8,30.15,ENE,59,3.0,11.0,40,0.00,,---,0.00,VWS V14.01,2013-04-27 22:01:00,
2013-04-27 14:06:00,24.5,4.2,30.15,NNW,336,7.0,17.0,41,0.00,,---,0.00,VWS V14.01,2013-04-27 22:06:00,
2013-04-27 14:11:00,24.1,4.3,30.16,ENE,59,2.0,17.0,42,0.00,,---,0.00,VWS V14.01,2013-04-27 22:11:00,
2013-04-27 14:16:00,24.5,4.2,30.16,NE,55,12.0,17.0,41,0.00,,---,0.00,VWS V14.01,2013-04-27 22:16:00,
2013-04-27 14:21:00,23.9,3.6,30.16,East,81,0.0,17.0,41,0.00,,---,0.00,VWS V14.01,2013-04-27 22:21:00,
2013-04-27 14:26:00,24.4,3.6,30.17,NNE,14,13.0,17.0,40,0.00,,---,0.00,VWS V14.01,2013-04-27 22:26:00,
2013-04-27 14:30:00,24.0,3.7,30.16,East,79,3.0,17.0,41,0.00,,---,0.00,VWS V14.01,2013-04-27 22:30:00,
2013-04-27 14:31:00,24.0,3.7,30.16,North,5,5.0,17.0,41,0.00,,---,0.00,VWS V14.01,2013-04-27 22:31:00,
2013-04-27 14:36:00,23.9,2.6,30.16,NE,36,0.0,14.0,39,0.00,,---,0.00,VWS V14.01,2013-04-27 22:36:00,
2013-04-27 14:41:00,23.8,3.5,30.17,NNE,31,5.0,14.0,41,0.00,,---,0.00,VWS V14.01,2013-04-27 22:41:00,
2013-04-27 14:45:00,24.2,3.4,30.17,NE,51,4.0,14.0,40,0.00,,---,0.00,VWS V14.01,2013-04-27 22:45:00,
2013-04-27 14:50:00,24.2,1.7,30.17,ENE,69,4.0,16.0,37,0.00,,---,0.00,VWS V14.01,2013-04-27 22:50:00,
2013-04-27 14:55:00,23.8,1.3,30.17,NE,34,1.0,16.0,37,0.00,,---,0.00,VWS V14.01,2013-04-27 22:55:00,
2013-04-27 15:00:00,24.2,1.7,30.17,NE,44,0.0,16.0,37,0.00,,---,0.00,VWS V14.01,2013-04-27 23:00:00,
2013-04-27 15:05:00,24.4,1.3,30.17,NNE,28,2.0,10.0,36,0.00,,---,0.00,VWS V14.01,2013-04-27 23:05:00,
2013-04-27 15:10:00,24.0,0.3,30.18,ENE,59,3.0,12.0,35,0.00,,---,0.00,VWS V14.01,2013-04-27 23:10:00,
2013-04-27 15:15:00,24.0,2.1,30.17,NNE,21,5.0,12.0,38,0.00,,---,0.00,VWS V14.01,2013-04-27 23:15:00,
2013-04-27 15:20:00,24.4,1.3,30.17,NNE,26,7.0,12.0,36,0.00,,---,0.00,VWS V14.01,2013-04-27 23:20:00,
2013-04-27 15:25:00,24.7,1.0,30.18,North,5,3.0,12.0,35,0.00,,---,0.00,VWS V14.01,2013-04-27 23:25:00,
2013-04-27 15:30:00,24.7,1.0,30.18,NE,45,6.0,12.0,35,0.00,,---,0.00,VWS V14.01,2013-04-27 23:30:00,
2013-04-27 15:35:00,24.5,-1.1,30.18,ESE,121,2.0,13.0,32,0.00,,---,0.00,VWS V14.01,2013-04-27 23:35:00,
2013-04-27 15:40:00,24.6,0.2,30.18,ENE,73,1.0,13.0,34,0.00,,---,0.00,VWS V14.01,2013-04-27 23:40:00,
2013-04-27 15:45:00,24.7,-1.6,30.18,NE,42,4.0,15.0,31,0.00,,---,0.00,VWS V14.01,2013-04-27 23:45:00,
2013-04-27 15:50:00,24.9,-0.1,30.18,NNE,19,13.0,15.0,33,0.00,,---,0.00,VWS V14.01,2013-04-27 23:50:00,
2013-04-27 15:55:00,24.8,-1.5,30.19,North,5,2.0,15.0,31,0.00,,---,0.00,VWS V14.01,2013-04-27 23:55:00,
2013-04-27 16:00:00,24.5,-3.2,30.19,ENE,71,1.0,15.0,29,0.00,,---,0.00,VWS V14.01,2013-04-28 00:00:00,
2013-04-27 16:05:00,24.6,-3.1,30.19,East,82,3.0,12.0,29,0.00,,---,0.00,VWS V14.01,2013-04-28 00:05:00,
2013-04-27 16:10:00,24.8,-2.9,30.19,East,79,2.0,12.0,29,0.00,,---,0.00,VWS V14.01,2013-04-28 00:10:00,
2013-04-27 16:15:00,24.8,-3.7,30.19,ENE,67,2.0,12.0,28,0.00,,---,0.00,VWS V14.01,2013-04-28 00:15:00,
2013-04-27 16:20:00,25.1,-3.4,30.19,ENE,57,7.0,12.0,28,0.00,,---,0.00,VWS V14.01,2013-04-28 00:20:00,
2013-04-27 16:25:00,24.7,-3.8,30.19,SE,126,2.0,12.0,28,0.00,,---,0.00,VWS V14.01,2013-04-28 00:25:00,
2013-04-27 16:30:00,24.8,-2.9,30.19,ENE,63,3.0,12.0,29,0.00,,---,0.00,VWS V14.01,2013-04-28 00:30:00,
2013-04-27 16:35:00,24.8,-3.7,30.19,NNW,336,2.0,12.0,28,0.00,,---,0.00,VWS V14.01,2013-04-28 00:35:00,
2013-04-27 16:40:00,25.0,-3.5,30.20,NE,43,1.0,12.0,28,0.00,,---,0.00,VWS V14.01,2013-04-28 00:40:00,
2013-04-27 16:45:00,25.2,-3.3,30.20,NNE,32,7.0,12.0,28,0.00,,---,0.00,VWS V14.01,2013-04-28 00:45:00,
2013-04-27 16:50:00,24.8,-3.7,30.20,NNE,27,5.0,12.0,28,0.00,,---,0.00,VWS V14.01,2013-04-28 00:50:00,
2013-04-27 16:55:00,24.6,-3.8,30.20,NE,54,8.0,12.0,28,0.00,,---,0.00,VWS V14.01,2013-04-28 00:55:00,
2013-04-27 17:00:00,24.4,-4.0,30.20,North,9,4.0,12.0,28,0.00,,---,0.00,VWS V14.01,2013-04-28 01:00:00,
2013-04-27 17:05:00,24.5,-4.7,30.20,ENE,74,2.0,13.0,27,0.00,,---,0.00,VWS V14.01,2013-04-28 01:05:00,
2013-04-27 17:10:00,24.3,-8.2,30.20,North,11,2.0,14.0,23,0.00,,---,0.00,VWS V14.01,2013-04-28 01:10:00,
2013-04-27 17:15:00,24.2,-7.4,30.20,North,5,4.0,14.0,24,0.00,,---,0.00,VWS V14.01,2013-04-28 01:15:00,
2013-04-27 17:20:00,24.3,-5.6,30.20,North,5,4.0,14.0,26,0.00,,---,0.00,VWS V14.01,2013-04-28 01:20:00,
2013-04-27 17:25:00,24.2,-5.7,30.21,NE,43,4.0,14.0,26,0.00,,---,0.00,VWS V14.01,2013-04-28 01:25:00,
2013-04-27 17:30:00,24.0,-6.7,30.21,North,360,9.0,14.0,25,0.00,,---,0.00,VWS V14.01,2013-04-28 01:30:00,
2013-04-27 17:35:00,24.1,-5.8,30.21,NW,326,4.0,7.0,26,0.00,,---,0.00,VWS V14.01,2013-04-28 01:35:00,
2013-04-27 17:40:00,24.2,-5.7,30.21,NE,42,5.0,8.0,26,0.00,,---,0.00,VWS V14.01,2013-04-28 01:40:00,
2013-04-27 17:45:00,24.4,-5.6,30.21,WSW,241,2.0,8.0,26,0.00,,---,0.00,VWS V14.01,2013-04-28 01:45:00,
2013-04-27 17:50:00,24.2,-7.4,30.21,NE,45,5.0,12.0,24,0.00,,---,0.00,VWS V14.01,2013-04-28 01:50:00,
2013-04-27 17:55:00,24.2,-6.5,30.21,ENE,67,3.0,12.0,25,0.00,,---,0.00,VWS V14.01,2013-04-28 01:55:00,
2013-04-27 18:00:00,24.0,-8.4,30.21,ENE,59,6.0,12.0,23,0.00,,---,0.00,VWS V14.01,2013-04-28 02:00:00,
2013-04-27 18:05:00,23.8,-8.6,30.22,ENE,78,6.0,10.0,23,0.00,,---,0.00,VWS V14.01,2013-04-28 02:05:00,
2013-04-27 18:10:00,23.4,-9.8,30.22,NNE,33,7.0,13.0,22,0.00,,---,0.00,VWS V14.01,2013-04-28 02:10:00,
2013-04-27 18:15:00,23.4,-8.1,30.22,NNW,330,8.0,13.0,24,0.00,,---,0.00,VWS V14.01,2013-04-28 02:15:00,
2013-04-27 18:20:00,23.7,-7.0,30.22,NNE,27,0.0,13.0,25,0.00,,---,0.00,VWS V14.01,2013-04-28 02:20:00,
2013-04-27 18:25:00,23.9,-7.6,30.22,NNE,32,0.0,13.0,24,0.00,,---,0.00,VWS V14.01,2013-04-28 02:25:00,
2013-04-27 18:30:00,24.2,-5.7,30.22,ENE,66,2.0,13.0,26,0.00,,---,0.00,VWS V14.01,2013-04-28 02:30:00,
2013-04-27 18:35:00,23.6,-6.2,30.22,NE,36,2.0,8.0,26,0.00,,---,0.00,VWS V14.01,2013-04-28 02:35:00,
2013-04-27 18:40:00,23.5,-4.1,30.23,ENE,76,6.0,8.0,29,0.00,,---,0.00,VWS V14.01,2013-04-28 02:40:00,
2013-04-27 18:45:00,23.1,-5.2,30.23,NE,49,5.0,11.0,28,0.00,,---,0.00,VWS V14.01,2013-04-28 02:45:00,
2013-04-27 18:50:00,22.9,-4.6,30.23,East,88,2.0,11.0,29,0.00,,---,0.00,VWS V14.01,2013-04-28 02:50:00,
2013-04-27 18:55:00,23.0,-4.5,30.23,East,79,1.0,11.0,29,0.00,,---,0.00,VWS V14.01,2013-04-28 02:55:00,
2013-04-27 19:00:00,22.8,-4.7,30.23,NE,43,1.0,11.0,29,0.00,,---,0.00,VWS V14.01,2013-04-28 03:00:00,
2013-04-27 19:05:00,22.6,-5.6,30.23,ENE,71,2.0,8.0,28,0.00,,---,0.00,VWS V14.01,2013-04-28 03:05:00,
2013-04-27 19:10:00,22.3,-7.4,30.23,ESE,102,4.0,10.0,26,0.00,,---,0.00,VWS V14.01,2013-04-28 03:10:00,
2013-04-27 19:15:00,22.2,-7.5,30.23,East,82,2.0,10.0,26,0.00,,---,0.00,VWS V14.01,2013-04-28 03:15:00,
2013-04-27 19:20:00,22.0,-8.4,30.23,ENE,73,2.0,10.0,25,0.00,,---,0.00,VWS V14.01,2013-04-28 03:20:00,
2013-04-27 19:25:00,21.9,-5.5,30.23,East,90,0.0,10.0,29,0.00,,---,0.00,VWS V14.01,2013-04-28 03:25:00,
2013-04-27 19:30:00,21.8,-7.8,30.23,East,79,2.0,10.0,26,0.00,,---,0.00,VWS V14.01,2013-04-28 03:30:00,
2013-04-27 19:35:00,21.8,-7.8,30.24,East,97,4.0,7.0,26,0.00,,---,0.00,VWS V14.01,2013-04-28 03:35:00,
2013-04-27 19:40:00,21.9,-6.2,30.24,NNE,23,0.0,7.0,28,0.00,,---,0.00,VWS V14.01,2013-04-28 03:40:00,
2013-04-27 19:45:00,21.7,-5.7,30.24,NE,42,2.0,8.0,29,0.00,,---,0.00,VWS V14.01,2013-04-28 03:45:00,
2013-04-27 19:50:00,21.5,-8.1,30.23,NE,41,0.0,8.0,26,0.00,,---,0.00,VWS V14.01,2013-04-28 03:50:00,
2013-04-27 19:55:00,21.5,-6.5,30.24,East,97,2.0,8.0,28,0.00,,---,0.00,VWS V14.01,2013-04-28 03:55:00,
2013-04-27 20:00:00,21.5,-7.3,30.24,East,93,0.0,8.0,27,0.00,,---,0.00,VWS V14.01,2013-04-28 04:00:00,
2013-04-27 20:01:00,21.5,-7.3,30.24,NE,35,5.0,8.0,27,0.00,,---,0.00,VWS V14.01,2013-04-28 04:01:00,
2013-04-27 20:06:00,21.4,-7.4,30.24,ENE,63,1.0,6.0,27,0.00,,---,0.00,VWS V14.01,2013-04-28 04:06:00,
2013-04-27 20:11:00,21.2,-7.6,30.24,ENE,69,1.0,10.0,27,0.00,,---,0.00,VWS V14.01,2013-04-28 04:11:00,
2013-04-27 20:16:00,21.1,-7.6,30.24,NNE,28,2.0,10.0,27,0.00,,---,0.00,VWS V14.01,2013-04-28 04:16:00,
2013-04-27 20:21:00,21.1,-7.6,30.24,NE,53,1.0,10.0,27,0.00,,---,0.00,VWS V14.01,2013-04-28 04:21:00,
2013-04-27 20:26:00,20.9,-7.1,30.24,NE,42,2.0,10.0,28,0.00,,---,0.00,VWS V14.01,2013-04-28 04:26:00,
2013-04-27 20:30:00,20.7,-7.2,30.24,East,85,2.0,10.0,28,0.00,,---,0.00,VWS V14.01,2013-04-28 04:30:00,
2013-04-27 20:31:00,20.7,-8.0,30.24,ENE,68,0.0,10.0,27,0.00,,---,0.00,VWS V14.01,2013-04-28 04:31:00,
2013-04-27 20:36:00,20.5,-8.2,30.24,ENE,63,3.0,8.0,27,0.00,,---,0.00,VWS V14.01,2013-04-28 04:36:00,
2013-04-27 20:41:00,20.4,-7.5,30.24,ENE,58,0.0,8.0,28,0.00,,---,0.00,VWS V14.01,2013-04-28 04:41:00,
2013-04-27 20:46:00,20.2,-6.3,30.24,ENE,67,2.0,8.0,30,0.00,,---,0.00,VWS V14.01,2013-04-28 04:46:00,
2013-04-27 20:51:00,20.0,-5.8,30.24,ENE,57,2.0,8.0,31,0.00,,---,0.00,VWS V14.01,2013-04-28 04:51:00,
2013-04-27 20:56:00,19.8,-4.6,30.24,ENE,78,3.0,8.0,33,0.00,,---,0.00,VWS V14.01,2013-04-28 04:56:00,
2013-04-27 21:00:00,19.7,-4.7,30.24,ENE,64,1.0,8.0,33,0.00,,---,0.00,VWS V14.01,2013-04-28 05:00:00,
2013-04-27 21:01:00,19.7,-4.7,30.24,ENE,64,1.0,8.0,33,0.00,,---,0.00,VWS V14.01,2013-04-28 05:01:00,
2013-04-27 21:06:00,19.5,-4.3,30.25,East,86,0.0,4.0,34,0.00,,---,0.00,VWS V14.01,2013-04-28 05:06:00,
2013-04-27 21:11:00,19.3,-3.9,30.25,ENE,72,1.0,5.0,35,0.00,,---,0.00,VWS V14.01,2013-04-28 05:11:00,
2013-04-27 21:16:00,19.1,-3.5,30.25,NE,52,2.0,6.0,36,0.00,,---,0.00,VWS V14.01,2013-04-28 05:16:00,
2013-04-27 21:21:00,19.0,-3.0,30.25,ENE,57,4.0,6.0,37,0.00,,---,0.00,VWS V14.01,2013-04-28 05:21:00,
2013-04-27 21:26:00,18.8,-3.7,30.25,ENE,66,2.0,6.0,36,0.00,,---,0.00,VWS V14.01,2013-04-28 05:26:00,
2013-04-27 21:30:00,18.6,-3.9,30.25,ENE,66,0.0,6.0,36,0.00,,---,0.00,VWS V14.01,2013-04-28 05:30:00,
2013-04-27 21:31:00,18.6,-3.3,30.25,ENE,66,0.0,6.0,37,0.00,,---,0.00,VWS V14.01,2013-04-28 05:31:00,
2013-04-27 21:36:00,18.5,-3.4,30.25,ENE,63,1.0,3.0,37,0.00,,---,0.00,VWS V14.01,2013-04-28 05:36:00,
2013-04-27 21:41:00,18.3,-3.6,30.25,ENE,63,0.0,3.0,37,0.00,,---,0.00,VWS V14.01,2013-04-28 05:41:00,
2013-04-27 21:46:00,18.1,-3.8,30.26,ENE,65,0.0,3.0,37,0.00,,---,0.00,VWS V14.01,2013-04-28 05:46:00,
2013-04-27 21:51:00,17.9,-4.0,30.26,ENE,62,1.0,3.0,37,0.00,,---,0.00,VWS V14.01,2013-04-28 05:51:00,
2013-04-27 21:56:00,17.7,-4.1,30.26,ENE,57,1.0,6.0,37,0.00,,---,0.00,VWS V14.01,2013-04-28 05:56:00,
2013-04-27 22:00:00,17.5,-3.8,30.26,NE,49,2.0,6.0,38,0.00,,---,0.00,VWS V14.01,2013-04-28 06:00:00,
2013-04-27 22:01:00,17.5,-3.8,30.26,NE,48,2.0,6.0,38,0.00,,---,0.00,VWS V14.01,2013-04-28 06:01:00,
2013-04-27 22:06:00,17.3,-3.9,30.26,NE,34,5.0,5.0,38,0.00,,---,0.00,VWS V14.01,2013-04-28 06:06:00,
2013-04-27 22:11:00,17.2,-4.0,30.26,NE,50,0.0,5.0,38,0.00,,---,0.00,VWS V14.01,2013-04-28 06:11:00,
2013-04-27 22:16:00,17.0,-3.7,30.26,NNE,31,0.0,5.0,39,0.00,,---,0.00,VWS V14.01,2013-04-28 06:16:00,
2013-04-27 22:21:00,16.9,-3.8,30.26,ENE,59,0.0,5.0,39,0.00,,---,0.00,VWS V14.01,2013-04-28 06:21:00,
2013-04-27 22:26:00,16.8,-3.8,30.26,NE,51,0.0,5.0,39,0.00,,---,0.00,VWS V14.01,2013-04-28 06:26:00,
2013-04-27 22:30:00,16.6,-3.5,30.26,NE,43,0.0,5.0,40,0.00,,---,0.00,VWS V14.01,2013-04-28 06:30:00,
2013-04-27 22:31:00,16.6,-3.5,30.26,NE,43,0.0,5.0,40,0.00,,---,0.00,VWS V14.01,2013-04-28 06:31:00,
2013-04-27 22:36:00,16.6,-3.5,30.26,ENE,74,2.0,6.0,40,0.00,,---,0.00,VWS V14.01,2013-04-28 06:36:00,
2013-04-27 22:41:00,16.5,-3.6,30.26,ENE,74,0.0,6.0,40,0.00,,---,0.00,VWS V14.01,2013-04-28 06:41:00,
2013-04-27 22:46:00,16.2,-3.9,30.26,ENE,65,0.0,6.0,40,0.00,,---,0.00,VWS V14.01,2013-04-28 06:46:00,
2013-04-27 22:51:00,16.2,-3.3,30.27,ENE,67,1.0,6.0,41,0.00,,---,0.00,VWS V14.01,2013-04-28 06:51:00,
2013-04-27 22:56:00,16.0,-3.5,30.27,ENE,57,1.0,6.0,41,0.00,,---,0.00,VWS V14.01,2013-04-28 06:56:00,
2013-04-27 23:00:00,15.9,-3.1,30.27,ENE,65,0.0,6.0,42,0.00,,---,0.00,VWS V14.01,2013-04-28 07:00:00,
2013-04-27 23:01:00,15.8,-3.7,30.27,ENE,65,1.0,6.0,41,0.00,,---,0.00,VWS V14.01,2013-04-28 07:01:00,
2013-04-27 23:06:00,15.8,-3.2,30.27,East,80,0.0,4.0,42,0.00,,---,0.00,VWS V14.01,2013-04-28 07:06:00,
2013-04-27 23:11:00,15.9,-3.1,30.27,East,82,2.0,5.0,42,0.00,,---,0.00,VWS V14.01,2013-04-28 07:11:00,
2013-04-27 23:16:00,15.8,-3.2,30.27,ENE,62,0.0,5.0,42,0.00,,---,0.00,VWS V14.01,2013-04-28 07:16:00,
2013-04-27 23:21:00,15.7,-3.3,30.27,NE,50,0.0,5.0,42,0.00,,---,0.00,VWS V14.01,2013-04-28 07:21:00,
2013-04-27 23:26:00,15.7,-3.8,30.27,NE,56,0.0,5.0,41,0.00,,---,0.00,VWS V14.01,2013-04-28 07:26:00,
2013-04-27 23:30:00,15.6,-3.9,30.27,ENE,59,0.0,5.0,41,0.00,,---,0.00,VWS V14.01,2013-04-28 07:30:00,
2013-04-27 23:31:00,15.6,-3.9,30.27,ENE,59,0.0,5.0,41,0.00,,---,0.00,VWS V14.01,2013-04-28 07:31:00,
2013-04-27 23:35:00,15.6,-3.4,30.27,East,89,0.0,2.0,42,0.00,,---,0.00,VWS V14.01,2013-04-28 07:35:00,
2013-04-27 23:40:00,15.4,-3.6,30.27,ENE,77,1.0,2.0,42,0.00,,---,0.00,VWS V14.01,2013-04-28 07:40:00,
2013-04-27 23:45:00,15.2,-3.8,30.27,ENE,67,0.0,4.0,42,0.00,,---,0.00,VWS V14.01,2013-04-28 07:45:00,
2013-04-27 23:50:00,15.1,-3.4,30.27,East,85,1.0,4.0,43,0.00,,---,0.00,VWS V14.01,2013-04-28 07:50:00,
2013-04-27 23:55:00,15.2,-3.3,30.27,East,92,1.0,5.0,43,0.00,,---,0.00,VWS V14.01,2013-04-28 07:55:00,